Back to catalog

FENGYUN 1C DEB

AlivePO
NORAD 30815·DEBRIS·🇨🇳 China

Launched May 10, 1999 from Taiyuan Satellite Launch Center

Loading…

Next Passes (next 24 hours)

TLE

FreshSource: Space-Track

Epoch: Sep 12, 2026, 02:15 UTC

1 30815U 99025AUZ 26255.09430354  .00012822  00000-0  14434-2 0  9993
2 30815  99.2945  99.4708 0002678  53.7991  72.9427 14.86823439 17918

Track FENGYUN 1C DEB in real time with AllMySat

Download on the App Store